861  
ASUS44 KJAN 171910  
RWRMS  
 
MISSISSIPPI HOURLY WEATHER ROUNDUP  
NATIONAL WEATHER SERVICE JACKSON MS  
200 PM CDT TUE SEP 17 2019  
 
NOTE: "FAIR: INDICATES FEW OR NO CLOUDS BELOW 12,000 FEET WITH NO  
SIGNIFICANT WEATHER AND/OR S TO VISIBILITY
.  
 
MSZ001>002-007>008-010>013-018>021-025>028-034>036-172000-  
NORTHWEST MISSISSIPPI  
 
CITY SKY/WX TMP DP RH WIND PRES REMARKS
 
BATESVILLE FAIR 97 64 34 N7 30.01F HX 99  
CLARKSDALE N/A 99 66 34 E3 30.02F HX 102  
CLEVELAND FAIR 98 66 35 S5 30.00F HX 101  
GREENWOOD FAIR 100 66 32 N5 30.01 HX 104  
GREENVILLE FAIR 96 64 34 E3 30.00F HX 98  
OLIVE BRANCH MOSUNNY 95 63 34 NW8 30.02F HX 96  
OXFORD FAIR 97 61 30 CALM 30.04F HX 97  
TUNICA N/A 95 64 36 SE3 30.03F HX 97  
WINONA FAIR 91 69 46 CALM 30.02F HX 96  

 
 
MSZ003>006-009-014>017-022>024-029>033-037>039-172000-  
NORTHEAST MISSISSIPPI  
 
CITY SKY/WX TMP DP RH WIND PRES REMARKS
 
ABERDEEN FAIR 97 79 56 N7 30.01F HX 115  
COLUMBUS AFB FAIR 98 65 33 CALM 30.00F HX 100  
CORINTH FAIR 95 63 34 VRB5 30.02F HX 96  
GOLDN TRIANGLE FAIR 98 67 36 NW7 30.01F HX 102  
STARKVILLE FAIR 95 64 36 N5 30.02F HX 97  
TUPELO FAIR 96 62 32 VRB5 30.01F HX 97  

 
 
MSZ040-058-172000-  
CENTRAL MISSISSIPPI  
 
CITY SKY/WX TMP DP RH WIND PRES REMARKS
 
JACKSON INTL FAIR 96 63 33 E5 30.01F HX 97  
JACKSON HAWKNS FAIR 94 66 39 SE7 30.01F HX 97  
MADISON FAIR 95 64 36 CALM 30.02F HX 97  
MERIDIAN KEY FAIR 99 62 29 VRB3 29.99F HX 100  
MERIDIAN NAS FAIR 96 61 31 N7 30.00F HX 96  
RAYMOND N/A 97 68 38 S5 30.00F HX 101  
VICKSBURG VKS CLEAR 97 68 38 VRB7 30.00F HX 101  

 
 
MSZ059>079-172000-  
SOUTH MISSISSIPPI  
 
CITY SKY/WX TMP DP RH WIND PRES REMARKS
 
BROOKHAVEN FAIR 91 68 46 CALM 30.03F HX 95  
HATTIESBURG FAIR 95 66 38 CALM 30.01F HX 98  
LAUREL PTCLDY 95 68 41 W5 30.00F HX 100  
MCCOMB FAIR 94 68 42 S8 30.01F HX 98  
NATCHEZ FAIR 94 69 44 SE10 30.01F HX 99  
PINE BELT FAIR 95 71 45 S6 30.01F HX 102  

 
 
MSZ080>082-172000-  
COASTAL MISSISSIPPI  
 
CITY SKY/WX TMP DP RH WIND PRES REMARKS
 
BAY ST LOUIS MOSUNNY 93 68 43 SE7 30.00F HX 97  
BILOXI FAIR 94 70 45 SW8 30.00F HX 99  
PASCAGOULA PTSUNNY 97 70 41 VRB6 29.99F HX 103  
GULFPORT FAIR 94 67 41 S8 30.00F HX 97  

 
 
LAZ007>009-015>016-023>026-172000-  
NORTHEAST LOUISIANA  
 
CITY SKY/WX TMP DP RH WIND PRES REMARKS
 
BASTROP MOCLDY 97 67 38 CALM 30.01F HX 101  
TALLULAH/VBURG FAIR 96 69 41 NE9 30.00F HX 102  
VIDALIA FAIR 96 69 41 S9 29.99F HX 101  

 
 
 
CLICK HERE TO GO TO PREVIOUS BULLETINS.

The Nexlab MS Page Main Text Page